www.pogodaiklimat.ru

Погода и климат >> Архив погоды >> Греция >> Каламата


ПОГОДА в Каламате

  • Прогноз погоды в Каламате
  • Монитор погоды в Каламате

АРХИВ ПОГОДЫ в Каламате

Время (UTC), дата Ветер
(напр.,м/с)
 
Видим.   Явления Облачность Т
(С)
Тd
(С)
f
(%)
Тe
(С)
Тes
(С)
Комфортность P
(гПа)
Po
(гПа)
Тmin
(С)
Tmax
(С)
R
(мм)
R24
(мм)
S
(см)
18 18.06 штиль 0
{5}
10 км {гроза, морось} 4/1 900 м
[Cu hum Ac trans Ci fib]
+23.6 +13.1 52 +26 +26 жарко 1012.7 1011.8 +31.9 0.0
21 18.06 штиль 0
{3}
10 км 4/1 900 м
[Cu hum Ci sp]
+19.4 +13.9 70 +21 +21 комфорт 1013.8 1012.9
00 19.06 штиль 0
{3}
10 км 4/0
[Ci sp]
+18.4 +13.3 72 +19 +19 1012.6 1011.7
03 19.06 штиль 0
{3}
10 км 4/0 2000 м
[Ac lent Ci sp]
+18.0 +13.8 76 +18 +18 1012.0 1011.1
06 19.06 СЗ 2
{4}
10 км ясно +26.0 +15.1 51 +29 +35 душно 1012.3 1011.4 +17.9 280
09 19.06 Ю 4
{5}
10 км 3/3 600 м
[Cu med, cong]
+29.2 +16.7 47 +33 +41 очень
душно
1012.4 1011.5
12 19.06 ЮВ 4
{7}
10 км гроза без осадков 5/5 540 м
[Cb cap]
+27.4 +19.7 63 +33 +39 очень
душно
1012.2 1011.3
18 19.06 штиль 0
{7}
10 км {гроза} 4/1 900 м
[Cu med, cong Ac und Ci ing]
+25.6 +20.7 74 +32 +32 очень
душно
1011.9 1011.0 +29.6
21 19.06 штиль 0
{3}
10 км 4/1 900 м
[Cu med, cong Ci ing]
+21.8 +19.4 86 +27 +27 душно 1012.8 1011.9
00 20.06 СЗ 2
{3}
10 км 4/1 900 м
[Cu med, cong Ci ing]
+20.2 +17.9 87 +24 +24 комфорт 1011.9 1011.0
03 20.06 штиль 0
{4}
10 км ясно +18.6 +16.2 86 +19 +19 1011.3 1010.4
06 20.06 С 2
{5}
10 км ясно +26.8 +16.8 54 +30 +36 душно 1011.6 1010.7 +18.6 260
09 20.06 ЮВ 4
{6}
10 км 1/1 600 м
[Cu hum]
+29.0 +19.1 55 +34 +47 очень
душно
1011.3 1010.4
12 20.06 Ю 4
{6}
10 км 1/1 600 м
[Cu hum]
+30.8 +15.5 40 +33 +46 душно 1011.2 1010.3
15 20.06 штиль 0
{6}
10 км 3/1 600 м
[Cu hum Ac lent]
+30.4 +16.9 44 +34 +40 очень
душно
1010.4 1009.5
18 20.06 С 4
{9}
10 км 3/1 600 м
[Cu hum Cs]
+26.4 +17.3 57 +30 +30 душно 1011.5 1010.6 +31.3
21 20.06 С 3
{6}
10 км 1/1 600 м
[Cu hum]
+23.6 +19.2 76 +28 +28 душно 1012.5 1011.6
00 21.06 СЗ 2
{4}
10 км ясно +20.4 +18.1 87 +25 +25 комфорт 1012.5 1011.6
03 21.06 СЗ 3
{4}
10 км 1/0
[Ac lent]
+19.0 +15.8 82 +21 +21 комфорт 1012.6 1011.7
06 21.06 СЗ 2
{4}
10 км ясно +26.2 +16.4 55 +30 +36 душно 1013.2 1012.3 +18.9 268
09 21.06 Ю 4
{6}
10 км 3/3 600 м
[Cu hum]
+30.0 +17.2 46 +34 +43 очень
душно
1013.1 1012.2
12 21.06 Ю 5
{7}
10 км 3/3 600 м
[Cu hum]
+29.8 +16.3 44 +33 +40 душно 1012.7 1011.8
15 21.06 штиль 0
{7}
10 км 3/1 600 м
[Cu med, cong Ci ing]
+31.4 +15.0 37 +34 +41 душно 1011.8 1010.9
18 21.06 штиль 0
{5}
10 км 3/1 600 м
[Cu med, cong Ci ing]
+25.8 +19.2 67 +31 +31 очень
душно
1012.5 1011.6 +31.8
21 21.06 СЗ 2
{5}
10 км ясно +23.2 +17.9 72 +29 +29 душно 1013.4 1012.5
00 22.06 СЗ 4
{6}
10 км ясно +24.0 +16.4 62 +27 +27 жарко 1012.9 1012.0
03 22.06 СЗ 3
{6}
10 км 1/1 600 м
[Cu hum]
+22.6 +16.6 69 +27 +27 душно 1013.2 1012.3
06 22.06 С 3
{5}
10 км ясно +28.2 +16.1 48 +31 +37 душно 1013.7 1012.8 +21.3 288
09 22.06 Ю 4
{6}
10 км 1/1 600 м
[Cu hum]
+31.0 +18.9 49 +36 +47 очень
душно
1013.8 1012.9
12 22.06 ЮВ 4
{8}
10 км 4/4 600 м
[Cu hum]
+31.2 +15.7 39 +34 +41 душно 1014.3 1013.4
15 22.06 штиль 0
{7}
10 км 6/6 600 м
[Cu Sc]
+30.0 +17.3 46 +34 +37 очень
душно
1014.0 1013.1
18 22.06 штиль 0
{6}
10 км 1/0
[Ci fib]
+25.6 +20.5 73 +32 +32 очень
душно
1013.8 1012.9 +33.9
21 22.06 штиль 0
{3}
10 км ясно +22.0 +19.4 85 +27 +27 душно 1014.4 1013.5
00 23.06 штиль 0
{3}
10 км ясно +20.2 +17.0 82 +23 +23 комфорт 1014.5 1013.6
03 23.06 штиль 0
{3}
10 км ясно +19.8 +16.3 80 +22 +22 комфорт 1014.1 1013.2
06 23.06 штиль 0
{2}
10 км ясно +26.8 +17.8 58 +31 +39 душно 1014.6 1013.7 +19.7 260
09 23.06 Ю 4
{6}
10 км ясно +31.4 +17.9 45 +36 +50 очень
душно
1014.6 1013.7
12 23.06 Ю 3
{6}
10 км 1/1 600 м
[Cu hum Ac lent]
+30.6 +18.2 48 +35 +49 очень
душно
1015.6 1014.7
15 23.06 Ю 3
{6}
10 км 1/0
[Ac lent]
+29.6 +18.8 52 +35 +40 очень
душно
1013.3 1012.4
18 23.06 штиль 0
{5}
10 км 3/0
[Ci sp]
+25.6 +18.3 64 +30 +30 душно 1013.7 1012.8 +32.8
21 23.06 штиль 0
{3}
10 км 3/0
[Ci sp]
+21.8 +18.1 80 +27 +27 душно 1014.8 1013.9
00 24.06 штиль 0
{3}
10 км ясно +19.2 +15.7 80 +21 +21 комфорт 1014.0 1013.1
03 24.06 СЗ 2
{3}
10 км 3/0
[Ac lent]
+17.8 +13.3 75 +18 +18 1013.3 1012.3
06 24.06 штиль 0
{3}
10 км ясно +25.2 +14.2 50 +28 +35 жарко 1012.8 1011.9 +17.7 280
09 24.06 Ю 3
{4}
10 км 3/0
[Ac lent]
+30.4 +15.6 41 +33 +46 душно 1012.2 1011.3
12 24.06 Ю 3
{5}
10 км 1/1 600 м
[Cu hum Ac lent]
+32.4 +16.5 39 +36 +51 опасность
солнечного
удара
1010.6 1009.7
15 24.06 ЮВ 2
{6}
10 км 1/1 600 м
[Cu hum Ac lent]
+32.6 +17.6 41 +37 +42 очень
душно
1009.7 1008.8
18 24.06 С 3
{8}
10 км 1/1 600 м
[Cu hum]
+27.8 +18.1 56 +33 +33 очень
душно
1010.6 1009.7 +32.6
21 24.06 СЗ 2
{5}
10 км ясно +23.0 +18.2 74 +29 +29 очень
душно
1011.1 1010.2
00 25.06 СЗ 2
{4}
10 км ясно +22.8 +18.2 75 +28 +28 душно 1010.1 1009.2
06 25.06 штиль 0
{2}
10 км ясно +27.4 +19.6 62 +33 +41 очень
душно
1011.3 1010.4 +21.1 298
09 25.06 Ю 2
{5}
10 км 1/1 600 м
[Cu hum]
+30.6 +17.7 46 +35 +51 опасность
солнечного
удара
1011.9 1011.0
12 25.06 Ю 4
{7}
10 км 4/4 600 м
[Cu Sc Ac lent]
+29.2 +17.1 48 +33 +40 очень
душно
1012.2 1011.3
15 25.06 ЮВ 3
{7}
10 км 6/4 600 м
[Cu Sc Ci ing]
+28.8 +17.8 51 +33 +36 очень
душно
1012.6 1011.7

 

Местоположение метеостанции Каламата (Греция): широта 37.07 долгота 22.02 высота над уровнем моря 8 м.

В архиве по умолчанию представлена погода в Каламате за последнюю неделю. Архивные данные за месяц целиком и за предыдущие месяцы, начиная с января 2011 года, Вы можете получить, выбрав интересующий диапазон дат из раскрывающегося списка и нажав кнопку "Ввод!".


*Определитесь, кто Вы:
робот инопланетянин человек

Внимание! Время в таблицах - всемирное. Для получения местного времени необходимо прибавить поправку, которая равна 2 ч.

Смотрите также архив погоды в соседних городах и на ближайших метеорологических станциях:

Погода в Мефони (Греция) (39 км)
Погода в Триполисе (Греция) (61 км)
Погода в Астросе (Греция) (73 км)
Погода в Аргосе (Греция) (90 км)
Погода в Андравиде (Греция) (115 км)
Погода на Китире (Греция) (125 км)
Погода в Элефисисе (Греция) (175 км)
Погода в Афинах (Греция) (177 км)
Погода в Кефалонии (Греция) (178 км)
Погода в Элефтериос Венизелос (Греция) (192 км)

Пояснения к столбцам:

Ветер - указаны скорость ветра в м/с - средняя за 10 мин, порывы в срок и между сроками (в фигурных скобках) и направление, откуда дует ветер: С - северный, СВ - северо-восточный, В - восточный, ЮВ - юго-восточный, Ю - южный, ЮЗ - юго-западный, З - западный, СЗ - северо-западный.
Видимость - горизонтальная дальность видимости в метрах или километрах. При видимости от 1 до 10 км при отсутствии осадков обычно наблюдается дымка, при ухудшении видимости до 1 км и менее - туман. В сухую погоду видимость может ухудшаться дымом, пылью или мглою.
Явления - указаны атмосферные явления, наблюдавшиеся в срок или в последний час перед сроком; фигурными скобками обозначены явления, наблюдавшиеся между сроками (за 1-3 часа до срока); квадратными скобками обозначены град или гололедные отложения с указанием их диаметра в мм.
Облачность - указаны через наклонную черту общая и нижняя облачность в баллах и высота нижней границы облаков в метрах; квадратными скобками обозначены формы облаков: Ci - перистые, Cs - перисто-слоистые, Cc - перисто-кучевые, Ac - высококучевые, As - высокослоистые, Sc - слоисто-кучевые, Ns - слоисто-дождевые, Cu - кучевые, Cb - кучево-дождевые. Подробнее классификацию облаков см. в Атласе облаков (PDF).
T - Температура воздуха - температура, измеренная на высоте 2 м над землей.
Td - Температура точки росы - температура, при понижении до которой содержащийся в воздухе водяной пар достигнет насыщения.
f - Относительная влажность воздуха - влажноcть воздуха, измеренная на высоте 2 м над землей.
Te - Эффективная температура - температура, которую ощущает одетый по сезону человек в тени. Характеристика душности погоды. При расчете учитывается влияние влажности воздуха и скорости ветра на теплоощущения человека.
Tes - Эффективная температура на солнце - температура, которую ощущает человек, с поправкой на солнечный нагрев. Характеристика знойности погоды. Зависит от высоты солнца над горизонтом, облачности и скорости ветра. Ночью, в пасмурную погоду, а также при ветре 12 м/с и более поправка равна нулю.
P - Атмосферное давление - приведенное к уровню моря атмосферное давление.
Po - Атмосферное давление - измеренное на уровне метеостанции атмосферное давление.
Tmin - Минимальная температура - минимум температуры воздуха на высоте 2 м над землей.
Tmax - Максимальная температура - максимум температуры воздуха на высоте 2 м над землей.
R - Количество осадков - Количество выпавших осадков за период времени, мм. При наведении курсора мыши на число - период времени, за который выпало указанное количество осадков.
R24 - Количество осадков - Количество выпавших осадков за 24 часа, мм.
S - Снежный покров - Высота снежного покрова, см. При наведении курсора мыши на число - состояние снежного покрова и степень покрытия местности в баллах.